Location: Detroit
(42.3310°N, 83.0460°W)
Time: 07:27:55
(UTC-04:00)

Explorer 11/Cluster Stage 4 - Pass Details

Date: 06 February 2023
Orbit: 466 x 1241 km, 28.8° (Epoch: 02 April)

Event Time Altitude Azimuth Distance (km) Brightness Sun altitude
Exits shadow 05:59:32 15° 228° (SW) 2,715 8.9 -19.0°
Maximum altitude 06:04:44 30° 178° (S) 2,034 8.7 -18.0°
Drops below altitude 10° 06:11:32 10° 121° (ESE) 3,200 10.7 -16.8°
Sets 06:14:49 0° 112° (ESE) 4,143 11.8 -16.2°
